N1OTX Weather Reports


Display with metric or nautical units.
time (UTC)temp
F
wind
direction
speed
MPH
gust
MPH
rain 1hr
in
rain 24hr
in
rain mn
in
humidity
%
barometer
mb
20260901064021 67 202 1.0 2.0 0.00 0.00 0.00 80 1017.5
20260901063521 67 171 0.0 3.0 0.00 0.00 0.00 80 1017.6
20260901063022 67 190 1.0 3.0 0.00 0.00 0.00 79 1017.7
20260901062540 67 0.0 0.0 0.00 0.00 0.00 79 1017.8
20260901062020 67 297 0.0 1.0 0.00 0.00 0.00 79 1017.7
20260901061519 67 181 0.0 1.0 0.00 0.00 0.00 79 1017.6
20260901061019 68 185 0.0 2.0 0.00 0.00 0.00 78 1017.7
20260901060521 68 208 0.0 4.0 0.00 0.00 0.00 78 1017.7
20260901060021 68 208 1.0 4.0 0.00 0.00 0.00 78 1017.6
20260901055520 68 195 1.0 4.0 0.00 0.00 0.00 77 1017.6
20260901055020 68 199 1.0 3.0 0.00 0.00 0.00 77 1017.8
20260901054540 68 195 1.0 3.0 0.00 0.00 0.00 76 1017.7
20260901054020 68 209 1.0 6.0 0.00 0.00 0.00 76 1017.7
20260901053520 68 212 1.0 3.0 0.00 0.00 0.00 76 1017.7
20260901053019 68 191 1.0 3.0 0.00 0.00 0.00 75 1017.7
20260901052521 68 200 1.0 4.0 0.00 0.00 0.00 75 1017.6
20260901052021 68 205 1.0 4.0 0.00 0.00 0.00 74 1017.6
20260901051519 68 153 1.0 6.0 0.00 0.00 0.00 73 1017.7
20260901051040 68 191 1.0 6.0 0.00 0.00 0.00 73 1017.7
20260901050520 68 195 1.0 4.0 0.00 0.00 0.00 73 1017.8
20260901050020 68 233 0.0 2.0 0.00 0.00 0.00 74 1017.7
20260901045519 68 209 1.0 2.0 0.00 0.00 0.00 73 1017.7
20260901045019 68 237 0.0 3.0 0.00 0.00 0.00 73 1017.8
20260901044519 68 215 1.0 3.0 0.00 0.00 0.00 72 1017.8
20260901044021 68 235 1.0 4.0 0.00 0.00 0.00 72 1017.8
20260901043521 68 221 1.0 4.0 0.00 0.00 0.00 72 1017.8
20260901043020 68 210 1.0 4.0 0.00 0.00 0.00 72 1017.7
20260901042521 68 182 1.0 4.0 0.00 0.00 0.00 72 1017.8
20260901042020 68 196 2.0 4.0 0.00 0.00 0.00 72 1017.9
20260901041520 68 174 2.0 4.0 0.00 0.00 0.00 73 1017.8
20260901041019 68 203 2.0 4.0 0.00 0.00 0.00 73 1017.8
20260901040519 68 196 2.0 6.0 0.00 0.00 0.00 74 1017.9
20260901040026 68 218 2.0 8.0 0.00 0.00 0.00 74 1017.9
20260901035521 68 209 3.0 8.0 0.00 0.00 0.00 75 1017.9
20260901035021 68 196 2.0 6.0 0.00 0.00 0.00 77 1018.0
20260901034520 68 208 1.0 7.0 0.00 0.00 0.00 77 1018.0
20260901034020 68 198 2.0 6.0 0.00 0.00 0.00 78 1017.9
20260901033540 68 206 2.0 8.0 0.00 0.00 0.00 79 1017.8
20260901033020 68 177 2.0 6.0 0.00 0.00 0.00 79 1017.9
20260901032519 68 190 3.0 8.0 0.00 0.00 0.00 79 1018.0
20260901032039 68 197 3.0 7.0 0.00 0.00 0.00 80 1017.9
20260901031519 68 215 2.0 6.0 0.00 0.00 0.00 81 1017.9
20260901031041 68 194 2.0 4.0 0.00 0.00 0.00 81 1017.9
20260901030600 68 183 2.0 7.0 0.00 0.00 0.00 81 1017.8
20260901030020 68 179 2.0 6.0 0.00 0.00 0.00 81 1017.8
20260901025520 69 203 3.0 7.0 0.00 0.00 0.00 81 1017.8
20260901025020 69 206 2.0 7.0 0.00 0.00 0.00 81 1017.9
20260901024600 69 203 2.0 6.0 0.00 0.00 0.00 81 1017.8
20260901024019 69 186 2.0 4.0 0.00 0.00 0.00 80 1017.8
20260901023521 69 179 2.0 6.0 0.00 0.00 0.00 80 1017.8
20260901023021 69 190 2.0 4.0 0.00 0.00 0.00 80 1017.8
20260901022541 69 197 2.0 4.0 0.00 0.00 0.00 80 1017.8
20260901022020 69 194 2.0 8.0 0.00 0.00 0.00 80 1017.6
20260901021520 69 188 2.0 8.0 0.00 0.00 0.00 79 1017.8
20260901021040 69 211 1.0 6.0 0.00 0.00 0.00 79 1017.8
20260901020519 69 191 2.0 4.0 0.00 0.00 0.00 79 1017.9
20260901020040 69 196 2.0 6.0 0.00 0.00 0.00 78 1017.7
20260901015539 69 179 2.0 4.0 0.00 0.00 0.00 78 1017.8
20260901015021 69 218 1.0 7.0 0.00 0.00 0.00 78 1017.8
20260901014521 69 202 3.0 7.0 0.00 0.00 0.00 77 1017.9
20260901014020 70 194 2.0 7.0 0.00 0.00 0.00 76 1017.9
20260901013525 70 203 3.0 8.0 0.00 0.00 0.00 76 1017.9
20260901013020 70 208 2.0 6.0 0.00 0.00 0.00 75 1018.0
20260901012521 70 201 1.0 3.0 0.00 0.00 0.00 75 1018.0
20260901012020 70 192 2.0 7.0 0.00 0.00 0.00 75 1018.1
20260901011544 70 202 2.0 4.0 0.00 0.00 0.00 74 1018.0
20260901011039 70 203 2.0 4.0 0.00 0.00 0.00 75 1018.0
20260901010521 70 205 1.0 7.0 0.00 0.00 0.00 75 1017.9
20260901010020 69 196 2.0 7.0 0.00 0.00 0.00 75 1017.9
20260901005520 69 197 1.0 2.0 0.00 0.00 0.00 75 1017.9
20260901005020 69 220 0.0 2.0 0.00 0.00 0.00 75 1017.8
20260901004520 69 203 0.0 2.0 0.00 0.00 0.00 75 1017.7
20260901004020 68 212 0.0 3.0 0.00 0.00 0.00 76 1017.8
20260901003519 68 209 0.0 3.0 0.00 0.00 0.00 74 1017.7
20260901003019 68 192 0.0 2.0 0.00 0.00 0.00 75 1017.7
20260901002521 68 158 0.0 1.0 0.00 0.00 0.00 74 1017.7
20260901002020 68 158 0.0 2.0 0.00 0.00 0.00 74 1017.7
20260901001539 68 177 0.0 2.0 0.00 0.00 0.00 75 1017.8
20260901001020 68 189 0.0 2.0 0.00 0.00 0.00 75 1017.7
20260901000520 68 0.0 0.0 0.00 0.00 0.00 74 1017.7
20260901000020 68 189 0.0 1.0 0.00 0.00 0.00 74 1017.7
20260831235520 68 0.0 0.0 0.00 0.00 0.00 73 1017.7
20260831235059 68 0.0 0.0 0.00 0.00 0.00 73 1017.7
20260831234519 69 0.0 0.0 0.00 0.00 0.00 71 1017.7
20260831234021 69 0.0 0.0 0.00 0.00 0.00 72 1017.8
20260831233520 69 0.0 0.0 0.00 0.00 0.00 71 1017.8
20260831233020 69 0.0 0.0 0.00 0.00 0.00 70 1017.7
20260831232520 70 0.0 0.0 0.00 0.00 0.00 69 1017.8
20260831232020 70 0.0 0.0 0.00 0.00 0.00 71 1017.9
20260831231520 70 0.0 0.0 0.00 0.00 0.00 67 1017.9
20260831231019 71 0.0 0.0 0.00 0.00 0.00 66 1017.9
20260831230519 71 0.0 0.0 0.00 0.00 0.00 65 1017.9
20260831230019 71 0.0 0.0 0.00 0.00 0.00 64 1018.1
20260831225520 71 0.0 0.0 0.00 0.00 0.00 63 1018.0
20260831225020 71 0.0 0.0 0.00 0.00 0.00 64 1017.9
20260831224522 72 0.0 0.0 0.00 0.00 0.00 65 1018.0
20260831224020 72 0.0 0.0 0.00 0.00 0.00 64 1017.9
20260831223540 73 0.0 0.0 0.00 0.00 0.00 64 1018.1
20260831223020 73 188 0.0 1.0 0.00 0.00 0.00 61 1018.1
20260831222539 74 188 0.0 2.0 0.00 0.00 0.00 60 1018.1
20260831222019 74 196 1.0 6.0 0.00 0.00 0.00 58 1018.0
20260831221519 73 242 0.0 2.0 0.00 0.00 0.00 58 1018.1
20260831221020 74 0.0 1.0 0.00 0.00 0.00 60 1018.0
20260831220540 74 228 0.0 1.0 0.00 0.00 0.00 58 1018.0
20260831220040 75 220 0.0 2.0 0.00 0.00 0.00 55 1018.0
20260831215520 75 183 1.0 4.0 0.00 0.00 0.00 54 1017.8
20260831215020 76 184 1.0 3.0 0.00 0.00 0.00 53 1017.9
20260831214519 76 223 1.0 3.0 0.00 0.00 0.00 52 1017.8
20260831214019 76 262 1.0 3.0 0.00 0.00 0.00 53 1017.9
20260831213521 76 196 1.0 4.0 0.00 0.00 0.00 51 1018.0
20260831213041 76 175 3.0 7.0 0.00 0.00 0.00 51 1018.0
20260831212521 76 282 1.0 7.0 0.00 0.00 0.00 50 1018.1
20260831212020 76 221 2.0 4.0 0.00 0.00 0.00 52 1018.1
20260831211540 76 157 1.0 2.0 0.00 0.00 0.00 53 1018.1
20260831211020 76 253 0.0 2.0 0.00 0.00 0.00 54 1018.0
20260831210519 76 186 1.0 2.0 0.00 0.00 0.00 52 1018.1
20260831210019 76 260 0.0 2.0 0.00 0.00 0.00 53 1018.1
20260831205519 76 250 0.0 2.0 0.00 0.00 0.00 50 1018.1
20260831205021 76 248 0.0 2.0 0.00 0.00 0.00 50 1018.1
20260831204520 77 286 0.0 4.0 0.00 0.00 0.00 50 1018.1
20260831204020 76 186 1.0 8.0 0.00 0.00 0.00 47 1018.1
20260831203520 76 213 1.0 2.0 0.00 0.00 0.00 48 1018.2
20260831203020 76 320 1.0 3.0 0.00 0.00 0.00 48 1018.1
20260831202519 77 277 2.0 7.0 0.00 0.00 0.00 48 1018.0
20260831202040 77 184 1.0 4.0 0.00 0.00 0.00 47 1017.9
20260831201519 77 178 1.0 6.0 0.00 0.00 0.00 46 1018.1
20260831201019 78 204 1.0 3.0 0.00 0.00 0.00 45 1018.0
20260831200520 78 283 1.0 4.0 0.00 0.00 0.00 45 1018.1
20260831200020 78 188 1.0 4.0 0.00 0.00 0.00 45 1018.2
20260831195540 78 283 2.0 4.0 0.00 0.00 0.00 45 1018.2
20260831195020 78 57 1.0 6.0 0.00 0.00 0.00 45 1018.2
20260831194520 78 185 1.0 4.0 0.00 0.00 0.00 45 1018.3
20260831194020 77 354 1.0 4.0 0.00 0.00 0.00 44 1018.3
20260831193519 77 204 2.0 7.0 0.00 0.00 0.00 45 1018.4
20260831193019 77 3 1.0 3.0 0.00 0.00 0.00 45 1018.4
20260831192521 77 316 1.0 4.0 0.00 0.00 0.00 45 1018.5
20260831192020 78 260 1.0 4.0 0.00 0.00 0.00 47 1018.6
20260831191518 78 205 1.0 6.0 0.00 0.00 0.00 47 1018.5
20260831191040 78 192 2.0 6.0 0.00 0.00 0.00 46 1018.5
20260831190540 78 128 1.0 3.0 0.00 0.00 0.00 46 1018.6
20260831190039 78 77 0.0 3.0 0.00 0.00 0.00 44 1018.6
20260831185539 77 166 1.0 3.0 0.00 0.00 0.00 44 1018.6
20260831185039 77 332 1.0 3.0 0.00 0.00 0.00 45 1018.8
20260831184519 77 345 1.0 2.0 0.00 0.00 0.00 45 1018.8
20260831184041 77 18 0.0 1.0 0.00 0.00 0.00 46 1019.0
20260831183540 78 3 1.0 3.0 0.00 0.00 0.00 48 1019.0
20260831183022 78 337 1.0 3.0 0.00 0.00 0.00 44 1019.0
20260831182519 78 291 1.0 3.0 0.00 0.00 0.00 46 1019.1
20260831182019 78 44 0.0 3.0 0.00 0.00 0.00 41 1019.1
20260831181519 77 247 1.0 3.0 0.00 0.00 0.00 45 1019.1
20260831181019 78 44 1.0 3.0 0.00 0.00 0.00 44 1019.2
20260831180521 78 283 1.0 4.0 0.00 0.00 0.00 46 1019.1
20260831180020 78 159 1.0 3.0 0.00 0.00 0.00 44 1019.0
20260831175519 78 288 1.0 3.0 0.00 0.00 0.00 43 1019.1
20260831175019 78 181 2.0 4.0 0.00 0.00 0.00 43 1019.1
20260831174519 78 174 1.0 3.0 0.00 0.00 0.00 41 1019.2
20260831174021 78 85 1.0 4.0 0.00 0.00 0.00 42 1019.2
20260831173540 77 152 1.0 4.0 0.00 0.00 0.00 42 1019.3
20260831173020 78 82 1.0 3.0 0.00 0.00 0.00 42 1019.3
20260831172520 77 114 2.0 6.0 0.00 0.00 0.00 44 1019.4
20260831172020 77 118 3.0 6.0 0.00 0.00 0.00 45 1019.4
20260831171540 76 116 1.0 3.0 0.00 0.00 0.00 46 1019.5
20260831171019 76 349 0.0 3.0 0.00 0.00 0.00 49 1019.6
20260831170519 76 232 2.0 4.0 0.00 0.00 0.00 49 1019.6
20260831170019 76 119 1.0 2.0 0.00 0.00 0.00 49 1019.6
20260831165520 76 73 1.0 3.0 0.00 0.00 0.00 43 1019.7
20260831165040 76 353 1.0 3.0 0.00 0.00 0.00 49 1019.8
20260831164520 76 62 0.0 1.0 0.00 0.00 0.00 47 1019.8
20260831164020 75 112 0.0 1.0 0.00 0.00 0.00 48 1019.8
20260831163520 76 87 0.0 1.0 0.00 0.00 0.00 47 1019.7
20260831163019 75 357 0.0 2.0 0.00 0.00 0.00 50 1019.8
20260831162519 75 55 1.0 3.0 0.00 0.00 0.00 45 1020.0
20260831162039 75 65 1.0 3.0 0.00 0.00 0.00 46 1020.0
20260831161521 75 314 0.0 2.0 0.00 0.00 0.00 47 1020.0
20260831161020 76 308 1.0 2.0 0.00 0.00 0.00 44 1020.0
20260831160521 76 34 1.0 3.0 0.00 0.00 0.00 47 1020.1
20260831160020 76 245 1.0 3.0 0.00 0.00 0.00 48 1020.2
20260831155520 75 217 1.0 3.0 0.00 0.00 0.00 47 1020.2
20260831155019 75 253 1.0 3.0 0.00 0.00 0.00 49 1020.2
20260831154519 75 93 2.0 8.0 0.00 0.00 0.00 47 1020.2
20260831154019 75 92 3.0 8.0 0.00 0.00 0.00 49 1020.3
20260831153519 75 119 2.0 3.0 0.00 0.00 0.00 54 1020.3
20260831153021 75 240 1.0 1.0 0.00 0.00 0.00 52 1020.4
20260831152520 75 140 1.0 4.0 0.00 0.00 0.00 52 1020.4
20260831152020 74 115 3.0 8.0 0.00 0.00 0.00 50 1020.5
20260831151520 74 89 2.0 4.0 0.00 0.00 0.00 52 1020.5
20260831151020 74 51 1.0 4.0 0.00 0.00 0.00 51 1020.5
20260831150520 74 150 1.0 4.0 0.00 0.00 0.00 50 1020.3
20260831150019 74 150 2.0 4.0 0.00 0.00 0.00 52 1020.5
20260831145519 72 174 1.0 3.0 0.00 0.00 0.00 58 1020.5
20260831145019 72 160 1.0 1.0 0.00 0.00 0.00 53 1020.4
20260831144521 73 160 1.0 2.0 0.00 0.00 0.00 53 1020.6
20260831144020 72 93 1.0 3.0 0.00 0.00 0.00 52 1020.7
20260831143540 72 75 0.0 3.0 0.00 0.00 0.00 51 1020.7
20260831143100 73 66 1.0 3.0 0.00 0.00 0.00 56 1020.7
20260831142520 73 140 0.0 2.0 0.00 0.00 0.00 50 1020.5
20260831142020 73 158 1.0 4.0 0.00 0.00 0.00 50 1020.5
20260831141519 73 114 2.0 4.0 0.00 0.00 0.00 51 1020.4
20260831141024 72 130 1.0 4.0 0.00 0.00 0.00 55 1020.4
20260831140519 72 124 2.0 6.0 0.00 0.00 0.00 54 1020.4
20260831140021 72 108 2.0 6.0 0.00 0.00 0.00 56 1020.4
20260831135520 72 94 2.0 6.0 0.00 0.00 0.00 51 1020.5
20260831135020 72 112 1.0 4.0 0.00 0.00 0.00 56 1020.6
20260831134520 71 94 2.0 6.0 0.00 0.00 0.00 56 1020.4
20260831134059 71 118 3.0 7.0 0.00 0.00 0.00 58 1020.5
20260831133519 70 128 1.0 3.0 0.00 0.00 0.00 63 1020.4
20260831133019 70 92 1.0 2.0 0.00 0.00 0.00 62 1020.4
20260831132520 70 343 0.0 2.0 0.00 0.00 0.00 60 1020.4
20260831132019 70 82 0.0 2.0 0.00 0.00 0.00 62 1020.4
20260831131520 69 85 1.0 2.0 0.00 0.00 0.00 61 1020.4
20260831131020 69 90 2.0 6.0 0.00 0.00 0.00 63 1020.5
20260831130520 69 86 2.0 4.0 0.00 0.00 0.00 63 1020.4
20260831130020 68 75 2.0 4.0 0.00 0.00 0.00 65 1020.3
20260831125520 68 10 0.0 2.0 0.00 0.00 0.00 66 1020.3
20260831125100 68 15 0.0 2.0 0.00 0.00 0.00 64 1020.4
20260831124519 69 67 2.0 4.0 0.00 0.00 0.00 64 1020.5
20260831124019 69 101 2.0 7.0 0.00 0.00 0.00 66 1020.5
20260831123519 69 111 2.0 4.0 0.00 0.00 0.00 68 1020.4
20260831123021 68 110 3.0 8.0 0.00 0.00 0.00 68 1020.2
20260831122520 67 82 2.0 7.0 0.00 0.00 0.00 71 1020.3
20260831122040 67 53 1.0 3.0 0.00 0.00 0.00 75 1020.2
20260831121520 66 11 0.0 2.0 0.00 0.00 0.00 76 1020.2
20260831121020 66 52 0.0 2.0 0.00 0.00 0.00 76 1020.2
20260831120519 66 12 0.0 1.0 0.00 0.00 0.00 78 1020.2
20260831120019 66 45 0.0 1.0 0.00 0.00 0.00 79 1020.1
20260831115519 65 68 0.0 1.0 0.00 0.00 0.00 81 1020.0
20260831115019 65 68 0.0 1.0 0.00 0.00 0.00 82 1019.9
20260831114520 65 68 0.0 1.0 0.00 0.00 0.00 83 1020.0
20260831114020 65 81 0.0 2.0 0.00 0.00 0.00 85 1019.9
20260831113520 64 167 0.0 1.0 0.00 0.00 0.00 89 1019.9
20260831113021 63 167 1.0 1.0 0.00 0.00 0.00 93 1019.9
20260831112520 61 0.0 0.0 0.00 0.00 0.00 96 1019.7
20260831112019 60 0.0 0.0 0.00 0.00 0.00 97 1019.8
20260831111519 60 0.0 0.0 0.00 0.00 0.00 99 1019.8
20260831111019 59 0.0 0.0 0.00 0.00 0.00 99 1019.6
20260831110539 59 0.0 0.0 0.00 0.00 0.00 99 1019.7
20260831110020 58 0.0 0.0 0.00 0.00 0.00 98 1019.6
20260831105520 58 0.0 0.0 0.00 0.00 0.00 98 1019.5
20260831105040 58 0.0 0.0 0.00 0.00 0.00 98 1019.6
20260831104520 58 0.0 0.0 0.00 0.00 0.00 98 1019.5
20260831104019 58 0.0 0.0 0.00 0.00 0.00 98 1019.6
20260831103519 58 0.0 0.0 0.00 0.00 0.00 98 1019.6
20260831103019 58 0.0 0.0 0.00 0.00 0.00 98 1019.3
20260831102519 58 0.0 0.0 0.00 0.00 0.00 98 1019.4
20260831102018 58 0.0 0.0 0.00 0.00 0.00 97 1019.3
20260831101520 58 0.0 0.0 0.00 0.00 0.00 97 1019.2
20260831101020 58 0.0 0.0 0.00 0.00 0.00 97 1019.2
20260831100520 59 0.0 0.0 0.00 0.00 0.00 97 1019.1
20260831100019 59 0.0 0.0 0.00 0.00 0.00 98 1019.1
20260831095519 59 0.0 0.0 0.00 0.00 0.00 97 1019.0
20260831095019 59 0.0 0.0 0.00 0.00 0.00 97 1019.0
20260831094519 59 0.0 0.0 0.00 0.00 0.00 97 1018.9
20260831094018 59 0.0 0.0 0.00 0.00 0.00 97 1018.9
20260831093601 59 0.0 0.0 0.00 0.00 0.00 97 1018.8
20260831093020 59 0.0 0.0 0.00 0.00 0.00 96 1018.7
20260831092520 60 0.0 0.0 0.00 0.00 0.00 96 1018.7
20260831092019 60 0.0 0.0 0.00 0.00 0.00 96 1018.6
20260831091520 60 0.0 0.0 0.00 0.00 0.00 96 1018.5
20260831091019 60 0.0 0.0 0.00 0.00 0.00 96 1018.5
20260831090519 60 0.0 0.0 0.00 0.00 0.00 95 1018.5
20260831090019 60 0.0 0.0 0.00 0.00 0.00 95 1018.5
20260831085521 61 0.0 0.0 0.00 0.00 0.00 95 1018.4
20260831085020 61 0.0 0.0 0.00 0.00 0.00 95 1018.1
20260831084520 61 0.0 0.0 0.00 0.00 0.00 95 1018.2
20260831084020 61 0.0 0.0 0.00 0.00 0.00 95 1018.1
20260831083520 61 0.0 0.0 0.00 0.00 0.00 95 1018.2
20260831083019 61 0.0 0.0 0.00 0.00 0.00 94 1018.2
20260831082540 61 0.0 0.0 0.00 0.00 0.00 94 1018.1
20260831082039 61 0.0 0.0 0.00 0.00 0.00 94 1018.0
20260831081521 61 0.0 0.0 0.00 0.00 0.00 93 1018.0
20260831081020 62 0.0 0.0 0.00 0.00 0.00 93 1018.0
20260831080520 62 0.0 0.0 0.00 0.00 0.00 93 1018.0
20260831080040 62 0.0 0.0 0.00 0.00 0.00 93 1017.8
20260831075520 62 0.0 0.0 0.00 0.00 0.00 92 1017.7
20260831075020 62 0.0 0.0 0.00 0.00 0.00 91 1017.7
20260831074520 62 0.0 0.0 0.00 0.00 0.00 91 1017.6
20260831074019 63 0.0 0.0 0.00 0.00 0.00 91 1017.6
20260831073519 63 0.0 0.0 0.00 0.00 0.00 91 1017.6
20260831073023 63 0.0 0.0 0.00 0.00 0.00 90 1017.6
20260831072540 63 0.0 0.0 0.00 0.00 0.00 90 1017.5
20260831072020 63 0.0 0.0 0.00 0.00 0.00 89 1017.5
20260831071520 63 0.0 0.0 0.00 0.00 0.00 89 1017.5
20260831071019 64 0.0 0.0 0.00 0.00 0.00 88 1017.6
20260831070519 64 0.0 0.0 0.00 0.00 0.00 87 1017.5
20260831070019 64 0.0 0.0 0.00 0.00 0.00 87 1017.5
20260831065519 65 0.0 0.0 0.00 0.00 0.00 86 1017.7
20260831065020 65 0.0 0.0 0.00 0.00 0.00 86 1017.7
20260831064520 65 168 0.0 1.0 0.00 0.00 0.00 86 1017.6